owner,sensor,date,latitude,longitude,air_temperature,qcFlag 
LOOP,urn:ioos:station:wmo:lopl1:1,2018-09-01T01:09:00Z,28.8850,-90.0250,27.2,1111122 
LOOP,urn:ioos:station:wmo:lopl1:1,2018-09-01T02:19:00Z,28.8850,-90.0250,27.7,1111122 
LOOP,urn:ioos:station:wmo:lopl1:1,2018-09-01T03:29:00Z,28.8850,-90.0250,27.9,1111122 
LOOP,urn:ioos:station:wmo:lopl1:1,2018-09-01T04:39:00Z,28.8850,-90.0250,27.8,1111122 
LOOP,urn:ioos:station:wmo:lopl1:1,2018-09-01T06:24:00Z,28.8850,-90.0250,26.3,1111122 
LOOP,urn:ioos:station:wmo:lopl1:1,2018-09-01T07:34:00Z,28.8850,-90.0250,26.7,1111122 
LOOP,urn:ioos:station:wmo:lopl1:1,2018-09-01T08:44:00Z,28.8850,-90.0250,27.0,1111122 
LOOP,urn:ioos:station:wmo:lopl1:1,2018-09-01T09:54:00Z,28.8850,-90.0250,26.7,1111122 
LOOP,urn:ioos:station:wmo:lopl1:1,2018-09-01T11:04:00Z,28.8850,-90.0250,26.7,1111122 
LOOP,urn:ioos:station:wmo:lopl1:1,2018-09-01T12:14:00Z,28.8850,-90.0250,27.1,1111122 
LOOP,urn:ioos:station:wmo:lopl1:1,2018-09-01T13:24:00Z,28.8850,-90.0250,27.4,1111122 
LOOP,urn:ioos:station:wmo:lopl1:1,2018-09-01T14:34:00Z,28.8850,-90.0250,25.1,1111122 
LOOP,urn:ioos:station:wmo:lopl1:1,2018-09-01T16:20:00Z,28.8850,-90.0250,25.4,1111122 
LOOP,urn:ioos:station:wmo:lopl1:1,2018-09-01T17:20:00Z,28.8850,-90.0250,26.5,11111222 
LOOP,urn:ioos:station:wmo:lopl1:1,2018-09-01T17:30:00Z,28.8850,-90.0250,26.5,1111122 
LOOP,urn:ioos:station:wmo:lopl1:1,2018-09-01T18:40:00Z,28.8850,-90.0250,26.8,1111122 
LOOP,urn:ioos:station:wmo:lopl1:1,2018-09-01T19:50:00Z,28.8850,-90.0250,25.1,1111122 
LOOP,urn:ioos:station:wmo:lopl1:1,2018-09-01T21:00:00Z,28.8850,-90.0250,24.8,1111122 
LOOP,urn:ioos:station:wmo:lopl1:1,2018-09-01T22:15:00Z,28.8850,-90.0250,25.5,1111122 
LOOP,urn:ioos:station:wmo:lopl1:1,2018-09-01T23:25:00Z,28.8850,-90.0250,25.4,1111122 
LOOP,urn:ioos:station:wmo:lopl1:1,2018-09-02T00:35:00Z,28.8850,-90.0250,25.6,1111122 
LOOP,urn:ioos:station:wmo:lopl1:1,2018-09-02T01:55:00Z,28.8850,-90.0250,26.0,1111122 
LOOP,urn:ioos:station:wmo:lopl1:1,2018-09-02T03:05:00Z,28.8850,-90.0250,26.5,1111122 
LOOP,urn:ioos:station:wmo:lopl1:1,2018-09-02T04:05:00Z,28.8850,-90.0250,26.8,1111122 
LOOP,urn:ioos:station:wmo:lopl1:1,2018-09-02T05:15:00Z,28.8850,-90.0250,27.0,1111122 
LOOP,urn:ioos:station:wmo:lopl1:1,2018-09-02T06:25:00Z,28.8850,-90.0250,27.2,1111122 
LOOP,urn:ioos:station:wmo:lopl1:1,2018-09-02T07:35:00Z,28.8850,-90.0250,27.0,1111122 
LOOP,urn:ioos:station:wmo:lopl1:1,2018-09-02T08:45:00Z,28.8850,-90.0250,26.1,1111122 
LOOP,urn:ioos:station:wmo:lopl1:1,2018-09-02T09:55:00Z,28.8850,-90.0250,27.6,1111122 
LOOP,urn:ioos:station:wmo:lopl1:1,2018-09-02T11:05:00Z,28.8850,-90.0250,27.3,1111122 
LOOP,urn:ioos:station:wmo:lopl1:1,2018-09-02T12:15:00Z,28.8850,-90.0250,27.2,1111122 
LOOP,urn:ioos:station:wmo:lopl1:1,2018-09-02T13:25:00Z,28.8850,-90.0250,25.4,1111122 
LOOP,urn:ioos:station:wmo:lopl1:1,2018-09-02T14:40:00Z,28.8850,-90.0250,25.0,1111122 
LOOP,urn:ioos:station:wmo:lopl1:1,2018-09-02T15:40:00Z,28.8850,-90.0250,23.4,11111222 
LOOP,urn:ioos:station:wmo:lopl1:1,2018-09-02T15:50:00Z,28.8850,-90.0250,23.9,1111122 
LOOP,urn:ioos:station:wmo:lopl1:1,2018-09-02T16:50:00Z,28.8850,-90.0250,24.5,1111122 
LOOP,urn:ioos:station:wmo:lopl1:1,2018-09-02T18:00:00Z,28.8850,-90.0250,25.5,1111122 
LOOP,urn:ioos:station:wmo:lopl1:1,2018-09-02T19:10:00Z,28.8850,-90.0250,26.6,1111122 
LOOP,urn:ioos:station:wmo:lopl1:1,2018-09-02T20:20:00Z,28.8850,-90.0250,26.5,1111122 
LOOP,urn:ioos:station:wmo:lopl1:1,2018-09-02T21:30:00Z,28.8850,-90.0250,27.0,1111122 
LOOP,urn:ioos:station:wmo:lopl1:1,2018-09-02T22:30:00Z,28.8850,-90.0250,27.2,11111222 
LOOP,urn:ioos:station:wmo:lopl1:1,2018-09-02T22:40:00Z,28.8850,-90.0250,27.3,1111122 
LOOP,urn:ioos:station:wmo:lopl1:1,2018-09-03T00:05:00Z,28.8850,-90.0250,27.5,1111122 
LOOP,urn:ioos:station:wmo:lopl1:1,2018-09-03T01:05:00Z,28.8850,-90.0250,27.3,11111222 
LOOP,urn:ioos:station:wmo:lopl1:1,2018-09-03T01:15:00Z,28.8850,-90.0250,27.3,1111122 
LOOP,urn:ioos:station:wmo:lopl1:1,2018-09-03T02:25:00Z,28.8850,-90.0250,27.3,1111122 
LOOP,urn:ioos:station:wmo:lopl1:1,2018-09-03T03:55:00Z,28.8850,-90.0250,27.1,1111122 
LOOP,urn:ioos:station:wmo:lopl1:1,2018-09-03T05:05:00Z,28.8850,-90.0250,27.2,1111122 
LOOP,urn:ioos:station:wmo:lopl1:1,2018-09-03T06:15:00Z,28.8850,-90.0250,27.7,1111122 
LOOP,urn:ioos:station:wmo:lopl1:1,2018-09-03T07:25:00Z,28.8850,-90.0250,27.8,1111122 
LOOP,urn:ioos:station:wmo:lopl1:1,2018-09-03T08:35:00Z,28.8850,-90.0250,27.1,1111122 
LOOP,urn:ioos:station:wmo:lopl1:1,2018-09-03T09:55:00Z,28.8850,-90.0250,27.2,1111122 
LOOP,urn:ioos:station:wmo:lopl1:1,2018-09-03T11:05:00Z,28.8850,-90.0250,27.7,1111122 
LOOP,urn:ioos:station:wmo:lopl1:1,2018-09-03T12:15:00Z,28.8850,-90.0250,26.7,1111122 
LOOP,urn:ioos:station:wmo:lopl1:1,2018-09-03T13:15:00Z,28.8850,-90.0250,26.7,11111222 
LOOP,urn:ioos:station:wmo:lopl1:1,2018-09-03T13:25:00Z,28.8850,-90.0250,26.8,1111122 
LOOP,urn:ioos:station:wmo:lopl1:1,2018-09-03T14:40:00Z,28.8850,-90.0250,28.4,1111122 
LOOP,urn:ioos:station:wmo:lopl1:1,2018-09-03T16:30:00Z,28.8850,-90.0250,28.3,1111122 
LOOP,urn:ioos:station:wmo:lopl1:1,2018-09-03T17:40:00Z,28.8850,-90.0250,28.2,1111122 
LOOP,urn:ioos:station:wmo:lopl1:1,2018-09-03T18:50:00Z,28.8850,-90.0250,28.0,1111122 
LOOP,urn:ioos:station:wmo:lopl1:1,2018-09-03T20:00:00Z,28.8850,-90.0250,28.2,1111122 
LOOP,urn:ioos:station:wmo:lopl1:1,2018-09-03T21:10:00Z,28.8850,-90.0250,28.2,1111122 
LOOP,urn:ioos:station:wmo:lopl1:1,2018-09-03T22:10:00Z,28.8850,-90.0250,28.3,11111222 
LOOP,urn:ioos:station:wmo:lopl1:1,2018-09-03T22:20:00Z,28.8850,-90.0250,28.2,1111122 
LOOP,urn:ioos:station:wmo:lopl1:1,2018-09-03T23:30:00Z,28.8850,-90.0250,28.2,11111222 
LOOP,urn:ioos:station:wmo:lopl1:1,2018-09-04T00:45:00Z,28.8850,-90.0250,27.5,1111122 
LOOP,urn:ioos:station:wmo:lopl1:1,2018-09-04T01:55:00Z,28.8850,-90.0250,28.1,1111122 
LOOP,urn:ioos:station:wmo:lopl1:1,2018-09-04T03:05:00Z,28.8850,-90.0250,27.9,1111122 
LOOP,urn:ioos:station:wmo:lopl1:1,2018-09-04T04:25:00Z,28.8850,-90.0250,27.9,1111122 
LOOP,urn:ioos:station:wmo:lopl1:1,2018-09-04T05:25:00Z,28.8850,-90.0250,28.0,11111222 
LOOP,urn:ioos:station:wmo:lopl1:1,2018-09-04T05:35:00Z,28.8850,-90.0250,28.0,1111122 
LOOP,urn:ioos:station:wmo:lopl1:1,2018-09-04T06:45:00Z,28.8850,-90.0250,27.8,1111122 
LOOP,urn:ioos:station:wmo:lopl1:1,2018-09-04T07:55:00Z,28.8850,-90.0250,28.1,1111122 
LOOP,urn:ioos:station:wmo:lopl1:1,2018-09-04T09:05:00Z,28.8850,-90.0250,27.8,1111122 
LOOP,urn:ioos:station:wmo:lopl1:1,2018-09-04T10:15:00Z,28.8850,-90.0250,27.8,1111122 
LOOP,urn:ioos:station:wmo:lopl1:1,2018-09-04T11:40:00Z,28.8850,-90.0250,27.8,1111122 
LOOP,urn:ioos:station:wmo:lopl1:1,2018-09-04T12:50:00Z,28.8850,-90.0250,27.3,1111122 
LOOP,urn:ioos:station:wmo:lopl1:1,2018-09-04T14:00:00Z,28.8850,-90.0250,26.9,1111122 
LOOP,urn:ioos:station:wmo:lopl1:1,2018-09-04T15:20:00Z,28.8850,-90.0250,26.7,1111122 
LOOP,urn:ioos:station:wmo:lopl1:1,2018-09-04T16:20:00Z,28.8850,-90.0250,26.7,1111122 
LOOP,urn:ioos:station:wmo:lopl1:1,2018-09-04T17:45:00Z,28.8850,-90.0250,27.4,1111122 
LOOP,urn:ioos:station:wmo:lopl1:1,2018-09-04T18:55:00Z,28.8850,-90.0250,26.2,1111122 
LOOP,urn:ioos:station:wmo:lopl1:1,2018-09-04T19:55:00Z,28.8850,-90.0250,26.3,1111122 
LOOP,urn:ioos:station:wmo:lopl1:1,2018-09-04T21:05:00Z,28.8850,-90.0250,24.8,1111122 
LOOP,urn:ioos:station:wmo:lopl1:1,2018-09-04T22:15:00Z,28.8850,-90.0250,26.7,1111122 
LOOP,urn:ioos:station:wmo:lopl1:1,2018-09-04T23:25:00Z,28.8850,-90.0250,27.1,1111122 
LOOP,urn:ioos:station:wmo:lopl1:1,2018-09-05T00:25:00Z,28.8850,-90.0250,27.2,11111222 
LOOP,urn:ioos:station:wmo:lopl1:1,2018-09-05T00:40:00Z,28.8850,-90.0250,27.1,1111122 
LOOP,urn:ioos:station:wmo:lopl1:1,2018-09-05T01:50:00Z,28.8850,-90.0250,27.1,1111122 
LOOP,urn:ioos:station:wmo:lopl1:1,2018-09-05T03:00:00Z,28.8850,-90.0250,27.1,1111122 
LOOP,urn:ioos:station:wmo:lopl1:1,2018-09-05T04:10:00Z,28.8850,-90.0250,27.0,1111122 
LOOP,urn:ioos:station:wmo:lopl1:1,2018-09-05T05:10:00Z,28.8850,-90.0250,26.9,1111122 
LOOP,urn:ioos:station:wmo:lopl1:1,2018-09-05T06:20:00Z,28.8850,-90.0250,26.9,1111122 
LOOP,urn:ioos:station:wmo:lopl1:1,2018-09-05T07:30:00Z,28.8850,-90.0250,26.0,1111122 
LOOP,urn:ioos:station:wmo:lopl1:1,2018-09-05T08:40:00Z,28.8850,-90.0250,26.5,1111122 
LOOP,urn:ioos:station:wmo:lopl1:1,2018-09-05T09:50:00Z,28.8850,-90.0250,26.8,1111122 
LOOP,urn:ioos:station:wmo:lopl1:1,2018-09-05T11:00:00Z,28.8850,-90.0250,26.9,1111122 
LOOP,urn:ioos:station:wmo:lopl1:1,2018-09-05T12:10:00Z,28.8850,-90.0250,27.3,1111122 
LOOP,urn:ioos:station:wmo:lopl1:1,2018-09-05T13:25:00Z,28.8850,-90.0250,28.3,1111122 
LOOP,urn:ioos:station:wmo:lopl1:1,2018-09-05T14:35:00Z,28.8850,-90.0250,27.5,1111122 
LOOP,urn:ioos:station:wmo:lopl1:1,2018-09-05T15:45:00Z,28.8850,-90.0250,28.1,1111122 
LOOP,urn:ioos:station:wmo:lopl1:1,2018-09-05T16:55:00Z,28.8850,-90.0250,27.8,1111122 
LOOP,urn:ioos:station:wmo:lopl1:1,2018-09-05T17:55:00Z,28.8850,-90.0250,27.1,11111222 
LOOP,urn:ioos:station:wmo:lopl1:1,2018-09-05T18:05:00Z,28.8850,-90.0250,27.2,1111122 
LOOP,urn:ioos:station:wmo:lopl1:1,2018-09-05T19:15:00Z,28.8850,-90.0250,27.1,1111122 
LOOP,urn:ioos:station:wmo:lopl1:1,2018-09-05T20:40:00Z,28.8850,-90.0250,26.1,1111122 
LOOP,urn:ioos:station:wmo:lopl1:1,2018-09-05T21:50:00Z,28.8850,-90.0250,26.6,1111122 
LOOP,urn:ioos:station:wmo:lopl1:1,2018-09-05T23:00:00Z,28.8850,-90.0250,26.8,1111122 
LOOP,urn:ioos:station:wmo:lopl1:1,2018-09-06T00:10:00Z,28.8850,-90.0250,26.9,1111122 
LOOP,urn:ioos:station:wmo:lopl1:1,2018-09-06T01:25:00Z,28.8850,-90.0250,27.4,1111122 
LOOP,urn:ioos:station:wmo:lopl1:1,2018-09-06T02:45:00Z,28.8850,-90.0250,27.8,1111122 
LOOP,urn:ioos:station:wmo:lopl1:1,2018-09-06T04:10:00Z,28.8850,-90.0250,27.7,1111122 
LOOP,urn:ioos:station:wmo:lopl1:1,2018-09-06T05:20:00Z,28.8850,-90.0250,27.5,1111122 
LOOP,urn:ioos:station:wmo:lopl1:1,2018-09-06T06:30:00Z,28.8850,-90.0250,27.9,1111122 
LOOP,urn:ioos:station:wmo:lopl1:1,2018-09-06T08:15:00Z,28.8850,-90.0250,27.6,1111122 
LOOP,urn:ioos:station:wmo:lopl1:1,2018-09-06T09:55:00Z,28.8850,-90.0250,27.4,1111122 
LOOP,urn:ioos:station:wmo:lopl1:1,2018-09-06T11:05:00Z,28.8850,-90.0250,27.3,1111122 
LOOP,urn:ioos:station:wmo:lopl1:1,2018-09-06T12:15:00Z,28.8850,-90.0250,27.3,1111122 
LOOP,urn:ioos:station:wmo:lopl1:1,2018-09-06T13:15:00Z,28.8850,-90.0250,27.4,11111222 
LOOP,urn:ioos:station:wmo:lopl1:1,2018-09-06T13:25:00Z,28.8850,-90.0250,27.4,1111122 
LOOP,urn:ioos:station:wmo:lopl1:1,2018-09-06T14:35:00Z,28.8850,-90.0250,27.7,1111122 
LOOP,urn:ioos:station:wmo:lopl1:1,2018-09-06T15:45:00Z,28.8850,-90.0250,27.8,1111122 
LOOP,urn:ioos:station:wmo:lopl1:1,2018-09-06T17:10:00Z,28.8850,-90.0250,27.9,1111122 
LOOP,urn:ioos:station:wmo:lopl1:1,2018-09-06T18:20:00Z,28.8850,-90.0250,28.1,1111122 
LOOP,urn:ioos:station:wmo:lopl1:1,2018-09-06T19:30:00Z,28.8850,-90.0250,26.3,1111122 
LOOP,urn:ioos:station:wmo:lopl1:1,2018-09-06T20:45:00Z,28.8850,-90.0250,27.9,1111122 
LOOP,urn:ioos:station:wmo:lopl1:1,2018-09-06T21:55:00Z,28.8850,-90.0250,26.8,1111122 
LOOP,urn:ioos:station:wmo:lopl1:1,2018-09-06T23:05:00Z,28.8850,-90.0250,26.7,1111122 
LOOP,urn:ioos:station:wmo:lopl1:1,2018-09-07T00:15:00Z,28.8850,-90.0250,27.1,1111122 
LOOP,urn:ioos:station:wmo:lopl1:1,2018-09-07T01:25:00Z,28.8850,-90.0250,26.9,1111122 
LOOP,urn:ioos:station:wmo:lopl1:1,2018-09-07T03:05:00Z,28.8850,-90.0250,27.1,1111122 
LOOP,urn:ioos:station:wmo:lopl1:1,2018-09-07T04:15:00Z,28.8850,-90.0250,27.1,1111122 
LOOP,urn:ioos:station:wmo:lopl1:1,2018-09-07T05:25:00Z,28.8850,-90.0250,27.0,1111122 
LOOP,urn:ioos:station:wmo:lopl1:1,2018-09-07T06:35:00Z,28.8850,-90.0250,27.2,1111122 
LOOP,urn:ioos:station:wmo:lopl1:1,2018-09-07T07:50:00Z,28.8850,-90.0250,27.2,1111122 
LOOP,urn:ioos:station:wmo:lopl1:1,2018-09-07T09:00:00Z,28.8850,-90.0250,27.2,1111122 
LOOP,urn:ioos:station:wmo:lopl1:1,2018-09-07T10:10:00Z,28.8850,-90.0250,27.1,11111222 
LOOP,urn:ioos:station:wmo:lopl1:1,2018-09-07T10:25:00Z,28.8850,-90.0250,27.1,1111122 
LOOP,urn:ioos:station:wmo:lopl1:1,2018-09-07T11:35:00Z,28.8850,-90.0250,27.0,1111122 
LOOP,urn:ioos:station:wmo:lopl1:1,2018-09-07T12:45:00Z,28.8850,-90.0250,27.3,1111122 
LOOP,urn:ioos:station:wmo:lopl1:1,2018-09-07T13:45:00Z,28.8850,-90.0250,27.5,1111122 
LOOP,urn:ioos:station:wmo:lopl1:1,2018-09-07T14:55:00Z,28.8850,-90.0250,27.2,1111122 
LOOP,urn:ioos:station:wmo:lopl1:1,2018-09-07T16:05:00Z,28.8850,-90.0250,23.6,1111122 
LOOP,urn:ioos:station:wmo:lopl1:1,2018-09-07T17:15:00Z,28.8850,-90.0250,24.7,1111122 
LOOP,urn:ioos:station:wmo:lopl1:1,2018-09-07T18:25:00Z,28.8850,-90.0250,25.3,1111122 
LOOP,urn:ioos:station:wmo:lopl1:1,2018-09-07T19:35:00Z,28.8850,-90.0250,25.9,1111122 
LOOP,urn:ioos:station:wmo:lopl1:1,2018-09-07T20:45:00Z,28.8850,-90.0250,27.9,1111122 
LOOP,urn:ioos:station:wmo:lopl1:1,2018-09-07T22:10:00Z,28.8850,-90.0250,27.9,11111222 
LOOP,urn:ioos:station:wmo:lopl1:1,2018-09-07T22:35:00Z,28.8850,-90.0250,28.2,1111122 
LOOP,urn:ioos:station:wmo:lopl1:1,2018-09-07T23:35:00Z,28.8850,-90.0250,28.1,1111122 
LOOP,urn:ioos:station:wmo:lopl1:1,2018-09-08T00:45:00Z,28.8850,-90.0250,27.2,1111122 
LOOP,urn:ioos:station:wmo:lopl1:1,2018-09-08T01:55:00Z,28.8850,-90.0250,27.4,1111122 
LOOP,urn:ioos:station:wmo:lopl1:1,2018-09-08T03:05:00Z,28.8850,-90.0250,27.3,1111122 
LOOP,urn:ioos:station:wmo:lopl1:1,2018-09-08T04:25:00Z,28.8850,-90.0250,27.5,1111122 
LOOP,urn:ioos:station:wmo:lopl1:1,2018-09-08T04:50:00Z,28.8850,-90.0250,27.6,1111122 
LOOP,urn:ioos:station:wmo:lopl1:1,2018-09-08T05:50:00Z,28.8850,-90.0250,27.5,11111222 
LOOP,urn:ioos:station:wmo:lopl1:1,2018-09-08T06:00:00Z,28.8850,-90.0250,27.5,1111122 
LOOP,urn:ioos:station:wmo:lopl1:1,2018-09-08T07:10:00Z,28.8850,-90.0250,27.4,1111122 
LOOP,urn:ioos:station:wmo:lopl1:1,2018-09-08T13:05:00Z,28.8850,-90.0250,27.5,1111122 
LOOP,urn:ioos:station:wmo:lopl1:1,2018-09-08T14:05:00Z,28.8850,-90.0250,27.4,11111222 
LOOP,urn:ioos:station:wmo:lopl1:1,2018-09-08T14:15:00Z,28.8850,-90.0250,27.4,1111122 
LOOP,urn:ioos:station:wmo:lopl1:1,2018-09-08T15:25:00Z,28.8850,-90.0250,27.5,1111122 
LOOP,urn:ioos:station:wmo:lopl1:1,2018-09-08T16:35:00Z,28.8850,-90.0250,27.7,1111122 
LOOP,urn:ioos:station:wmo:lopl1:1,2018-09-08T17:45:00Z,28.8850,-90.0250,28.0,1111122 
LOOP,urn:ioos:station:wmo:lopl1:1,2018-09-08T18:55:00Z,28.8850,-90.0250,28.0,1111122 
LOOP,urn:ioos:station:wmo:lopl1:1,2018-09-08T20:10:00Z,28.8850,-90.0250,28.2,1111122 
LOOP,urn:ioos:station:wmo:lopl1:1,2018-09-08T21:25:00Z,28.8850,-90.0250,28.6,11111222 
LOOP,urn:ioos:station:wmo:lopl1:1,2018-09-08T21:35:00Z,28.8850,-90.0250,28.7,1111122 
LOOP,urn:ioos:station:wmo:lopl1:1,2018-09-08T22:45:00Z,28.8850,-90.0250,28.7,1111122 
LOOP,urn:ioos:station:wmo:lopl1:1,2018-09-08T23:55:00Z,28.8850,-90.0250,28.5,1111122 
LOOP,urn:ioos:station:wmo:lopl1:1,2018-09-09T01:00:00Z,28.8850,-90.0250,28.2,11111222 
LOOP,urn:ioos:station:wmo:lopl1:1,2018-09-09T01:20:00Z,28.8850,-90.0250,28.1,1111122 
LOOP,urn:ioos:station:wmo:lopl1:1,2018-09-09T02:30:00Z,28.8850,-90.0250,28.0,1111122 
LOOP,urn:ioos:station:wmo:lopl1:1,2018-09-09T03:30:00Z,28.8850,-90.0250,28.0,1111122 
LOOP,urn:ioos:station:wmo:lopl1:1,2018-09-09T04:40:00Z,28.8850,-90.0250,27.9,1111122 
LOOP,urn:ioos:station:wmo:lopl1:1,2018-09-09T05:40:00Z,28.8850,-90.0250,27.8,1111122 
LOOP,urn:ioos:station:wmo:lopl1:1,2018-09-09T06:50:00Z,28.8850,-90.0250,27.8,1111122 
LOOP,urn:ioos:station:wmo:lopl1:1,2018-09-09T08:00:00Z,28.8850,-90.0250,27.8,1111122 
LOOP,urn:ioos:station:wmo:lopl1:1,2018-09-09T09:10:00Z,28.8850,-90.0250,27.8,1111122 
LOOP,urn:ioos:station:wmo:lopl1:1,2018-09-09T10:20:00Z,28.8850,-90.0250,27.8,1111122 
LOOP,urn:ioos:station:wmo:lopl1:1,2018-09-09T11:30:00Z,28.8850,-90.0250,27.7,1111122 
LOOP,urn:ioos:station:wmo:lopl1:1,2018-09-09T12:40:00Z,28.8850,-90.0250,27.7,1111122 
LOOP,urn:ioos:station:wmo:lopl1:1,2018-09-09T13:50:00Z,28.8850,-90.0250,28.2,11111222 
LOOP,urn:ioos:station:wmo:lopl1:1,2018-09-09T14:00:00Z,28.8850,-90.0250,28.3,1111122 
LOOP,urn:ioos:station:wmo:lopl1:1,2018-09-09T15:10:00Z,28.8850,-90.0250,28.5,1111122 
LOOP,urn:ioos:station:wmo:lopl1:1,2018-09-09T16:20:00Z,28.8850,-90.0250,28.3,1111122 
LOOP,urn:ioos:station:wmo:lopl1:1,2018-09-09T17:30:00Z,28.8850,-90.0250,28.4,1111122 
LOOP,urn:ioos:station:wmo:lopl1:1,2018-09-09T18:40:00Z,28.8850,-90.0250,28.8,1111122 
LOOP,urn:ioos:station:wmo:lopl1:1,2018-09-09T19:55:00Z,28.8850,-90.0250,28.9,1111122 
LOOP,urn:ioos:station:wmo:lopl1:1,2018-09-09T21:05:00Z,28.8850,-90.0250,28.5,1111122 
LOOP,urn:ioos:station:wmo:lopl1:1,2018-09-09T22:15:00Z,28.8850,-90.0250,28.5,1111122 
LOOP,urn:ioos:station:wmo:lopl1:1,2018-09-09T23:25:00Z,28.8850,-90.0250,28.5,1111122 
LOOP,urn:ioos:station:wmo:lopl1:1,2018-09-10T00:35:00Z,28.8850,-90.0250,28.3,1111122 
LOOP,urn:ioos:station:wmo:lopl1:1,2018-09-10T01:45:00Z,28.8850,-90.0250,28.4,1111122 
LOOP,urn:ioos:station:wmo:lopl1:1,2018-09-10T02:55:00Z,28.8850,-90.0250,28.4,1111122 
LOOP,urn:ioos:station:wmo:lopl1:1,2018-09-10T04:05:00Z,28.8850,-90.0250,28.2,1111122 
LOOP,urn:ioos:station:wmo:lopl1:1,2018-09-10T05:15:00Z,28.8850,-90.0250,28.1,1111122 
LOOP,urn:ioos:station:wmo:lopl1:1,2018-09-10T06:25:00Z,28.8850,-90.0250,28.2,1111122 
LOOP,urn:ioos:station:wmo:lopl1:1,2018-09-10T07:40:00Z,28.8850,-90.0250,28.1,1111122 
LOOP,urn:ioos:station:wmo:lopl1:1,2018-09-10T08:50:00Z,28.8850,-90.0250,28.0,1111122 
LOOP,urn:ioos:station:wmo:lopl1:1,2018-09-10T10:00:00Z,28.8850,-90.0250,28.0,1111122 
LOOP,urn:ioos:station:wmo:lopl1:1,2018-09-10T11:10:00Z,28.8850,-90.0250,28.2,1111122 
LOOP,urn:ioos:station:wmo:lopl1:1,2018-09-10T12:20:00Z,28.8850,-90.0250,28.2,11111222 
LOOP,urn:ioos:station:wmo:lopl1:1,2018-09-10T12:35:00Z,28.8850,-90.0250,28.6,1111122 
LOOP,urn:ioos:station:wmo:lopl1:1,2018-09-10T13:55:00Z,28.8850,-90.0250,28.8,1111122 
LOOP,urn:ioos:station:wmo:lopl1:1,2018-09-10T15:05:00Z,28.8850,-90.0250,28.8,1111122 
LOOP,urn:ioos:station:wmo:lopl1:1,2018-09-10T16:15:00Z,28.8850,-90.0250,28.8,1111122 
LOOP,urn:ioos:station:wmo:lopl1:1,2018-09-10T17:25:00Z,28.8850,-90.0250,28.8,1111122 
LOOP,urn:ioos:station:wmo:lopl1:1,2018-09-10T18:25:00Z,28.8850,-90.0250,28.2,1111122 
LOOP,urn:ioos:station:wmo:lopl1:1,2018-09-10T19:40:00Z,28.8850,-90.0250,28.7,1111122 
LOOP,urn:ioos:station:wmo:lopl1:1,2018-09-10T20:50:00Z,28.8850,-90.0250,28.7,1111122 
LOOP,urn:ioos:station:wmo:lopl1:1,2018-09-10T22:00:00Z,28.8850,-90.0250,28.9,1111122 
LOOP,urn:ioos:station:wmo:lopl1:1,2018-09-10T23:10:00Z,28.8850,-90.0250,28.5,1111122 
LOOP,urn:ioos:station:wmo:lopl1:1,2018-09-11T00:20:00Z,28.8850,-90.0250,28.4,1111122 
LOOP,urn:ioos:station:wmo:lopl1:1,2018-09-11T01:20:00Z,28.8850,-90.0250,28.1,11111222 
LOOP,urn:ioos:station:wmo:lopl1:1,2018-09-11T01:30:00Z,28.8850,-90.0250,28.0,1111122 
LOOP,urn:ioos:station:wmo:lopl1:1,2018-09-11T02:40:00Z,28.8850,-90.0250,28.4,1111122 
LOOP,urn:ioos:station:wmo:lopl1:1,2018-09-11T03:50:00Z,28.8850,-90.0250,27.5,1111122 
LOOP,urn:ioos:station:wmo:lopl1:1,2018-09-11T05:00:00Z,28.8850,-90.0250,27.9,1111122 
LOOP,urn:ioos:station:wmo:lopl1:1,2018-09-11T06:10:00Z,28.8850,-90.0250,27.8,1111122 
LOOP,urn:ioos:station:wmo:lopl1:1,2018-09-11T07:25:00Z,28.8850,-90.0250,27.9,1111122 
LOOP,urn:ioos:station:wmo:lopl1:1,2018-09-11T08:35:00Z,28.8850,-90.0250,28.1,1111122 
LOOP,urn:ioos:station:wmo:lopl1:1,2018-09-11T09:45:00Z,28.8850,-90.0250,28.2,1111122 
LOOP,urn:ioos:station:wmo:lopl1:1,2018-09-11T10:55:00Z,28.8850,-90.0250,28.1,1111122 
LOOP,urn:ioos:station:wmo:lopl1:1,2018-09-11T12:05:00Z,28.8850,-90.0250,28.2,1111122 
LOOP,urn:ioos:station:wmo:lopl1:1,2018-09-11T13:05:00Z,28.8850,-90.0250,28.5,11111222 
LOOP,urn:ioos:station:wmo:lopl1:1,2018-09-11T13:15:00Z,28.8850,-90.0250,28.4,1111122 
LOOP,urn:ioos:station:wmo:lopl1:1,2018-09-11T14:25:00Z,28.8850,-90.0250,28.5,1111122 
LOOP,urn:ioos:station:wmo:lopl1:1,2018-09-11T15:35:00Z,28.8850,-90.0250,28.5,1111122 
LOOP,urn:ioos:station:wmo:lopl1:1,2018-09-11T16:45:00Z,28.8850,-90.0250,28.6,1111122 
LOOP,urn:ioos:station:wmo:lopl1:1,2018-09-11T17:55:00Z,28.8850,-90.0250,28.6,1111122 
LOOP,urn:ioos:station:wmo:lopl1:1,2018-09-11T19:05:00Z,28.8850,-90.0250,28.8,1111122 
LOOP,urn:ioos:station:wmo:lopl1:1,2018-09-11T20:20:00Z,28.8850,-90.0250,28.9,1111122 
LOOP,urn:ioos:station:wmo:lopl1:1,2018-09-11T22:24:00Z,28.8850,-90.0250,28.7,1111122 
LOOP,urn:ioos:station:wmo:lopl1:1,2018-09-11T23:26:00Z,28.8850,-90.0250,28.6,1111122 
LOOP,urn:ioos:station:wmo:lopl1:1,2018-09-12T00:26:00Z,28.8850,-90.0250,29.0,1111122 
LOOP,urn:ioos:station:wmo:lopl1:1,2018-09-12T01:26:00Z,28.8850,-90.0250,28.6,1111122 
LOOP,urn:ioos:station:wmo:lopl1:1,2018-09-12T02:36:00Z,28.8850,-90.0250,28.7,1111122 
LOOP,urn:ioos:station:wmo:lopl1:1,2018-09-12T03:36:00Z,28.8850,-90.0250,28.7,1111122 
LOOP,urn:ioos:station:wmo:lopl1:1,2018-09-12T04:36:00Z,28.8850,-90.0250,27.9,1111122 
LOOP,urn:ioos:station:wmo:lopl1:1,2018-09-12T05:36:00Z,28.8850,-90.0250,28.0,1111122 
LOOP,urn:ioos:station:wmo:lopl1:1,2018-09-12T06:36:00Z,28.8850,-90.0250,28.2,1111122 
LOOP,urn:ioos:station:wmo:lopl1:1,2018-09-12T07:36:00Z,28.8850,-90.0250,28.2,1111122 
LOOP,urn:ioos:station:wmo:lopl1:1,2018-09-12T08:36:00Z,28.8850,-90.0250,28.1,1111122 
LOOP,urn:ioos:station:wmo:lopl1:1,2018-09-12T09:36:00Z,28.8850,-90.0250,28.0,1111122 
LOOP,urn:ioos:station:wmo:lopl1:1,2018-09-12T10:36:00Z,28.8850,-90.0250,27.9,1111122 
LOOP,urn:ioos:station:wmo:lopl1:1,2018-09-12T11:36:00Z,28.8850,-90.0250,28.0,1111122 
LOOP,urn:ioos:station:wmo:lopl1:1,2018-09-12T12:36:00Z,28.8850,-90.0250,28.1,1111122 
LOOP,urn:ioos:station:wmo:lopl1:1,2018-09-12T13:36:00Z,28.8850,-90.0250,28.0,1111122 
LOOP,urn:ioos:station:wmo:lopl1:1,2018-09-12T14:36:00Z,28.8850,-90.0250,28.1,1111122 
LOOP,urn:ioos:station:wmo:lopl1:1,2018-09-12T15:36:00Z,28.8850,-90.0250,28.1,1111122 
LOOP,urn:ioos:station:wmo:lopl1:1,2018-09-12T16:36:00Z,28.8850,-90.0250,28.3,1111122 
LOOP,urn:ioos:station:wmo:lopl1:1,2018-09-12T17:36:00Z,28.8850,-90.0250,28.4,1111122 
LOOP,urn:ioos:station:wmo:lopl1:1,2018-09-12T18:36:00Z,28.8850,-90.0250,28.6,1111122 
LOOP,urn:ioos:station:wmo:lopl1:1,2018-09-12T19:36:00Z,28.8850,-90.0250,28.6,1111122 
LOOP,urn:ioos:station:wmo:lopl1:1,2018-09-12T20:36:00Z,28.8850,-90.0250,28.7,1111122 
LOOP,urn:ioos:station:wmo:lopl1:1,2018-09-12T21:36:00Z,28.8850,-90.0250,28.4,1111122 
LOOP,urn:ioos:station:wmo:lopl1:1,2018-09-12T22:36:00Z,28.8850,-90.0250,28.2,1111122 
LOOP,urn:ioos:station:wmo:lopl1:1,2018-09-12T23:36:00Z,28.8850,-90.0250,26.6,1111122 
LOOP,urn:ioos:station:wmo:lopl1:1,2018-09-13T00:36:00Z,28.8850,-90.0250,27.2,1111122 
LOOP,urn:ioos:station:wmo:lopl1:1,2018-09-13T01:36:00Z,28.8850,-90.0250,26.1,1111122 
LOOP,urn:ioos:station:wmo:lopl1:1,2018-09-13T02:36:00Z,28.8850,-90.0250,27.4,1111122 
LOOP,urn:ioos:station:wmo:lopl1:1,2018-09-13T03:36:00Z,28.8850,-90.0250,27.5,1111122 
LOOP,urn:ioos:station:wmo:lopl1:1,2018-09-13T04:41:00Z,28.8850,-90.0250,28.0,1111122 
LOOP,urn:ioos:station:wmo:lopl1:1,2018-09-13T05:41:00Z,28.8850,-90.0250,27.9,1111122 
LOOP,urn:ioos:station:wmo:lopl1:1,2018-09-13T06:41:00Z,28.8850,-90.0250,28.1,1111122 
LOOP,urn:ioos:station:wmo:lopl1:1,2018-09-13T07:41:00Z,28.8850,-90.0250,28.0,1111122 
LOOP,urn:ioos:station:wmo:lopl1:1,2018-09-13T08:41:00Z,28.8850,-90.0250,28.2,1111122 
LOOP,urn:ioos:station:wmo:lopl1:1,2018-09-13T09:41:00Z,28.8850,-90.0250,28.3,1111122 
LOOP,urn:ioos:station:wmo:lopl1:1,2018-09-13T10:41:00Z,28.8850,-90.0250,28.3,1111122 
LOOP,urn:ioos:station:wmo:lopl1:1,2018-09-13T11:41:00Z,28.8850,-90.0250,28.2,1111122 
LOOP,urn:ioos:station:wmo:lopl1:1,2018-09-13T12:41:00Z,28.8850,-90.0250,28.5,1111122 
LOOP,urn:ioos:station:wmo:lopl1:1,2018-09-13T13:41:00Z,28.8850,-90.0250,28.5,1111122 
LOOP,urn:ioos:station:wmo:lopl1:1,2018-09-13T14:41:00Z,28.8850,-90.0250,26.4,1111122 
LOOP,urn:ioos:station:wmo:lopl1:1,2018-09-13T15:41:00Z,28.8850,-90.0250,26.9,1111122 
LOOP,urn:ioos:station:wmo:lopl1:1,2018-09-13T16:41:00Z,28.8850,-90.0250,27.2,1111122 
LOOP,urn:ioos:station:wmo:lopl1:1,2018-09-13T17:41:00Z,28.8850,-90.0250,27.8,1111122 
LOOP,urn:ioos:station:wmo:lopl1:1,2018-09-13T18:41:00Z,28.8850,-90.0250,27.9,1111122 